Total_Precipitation_Accumulation
0.25 0.36 0.39 0.35 0.32 0.28 0.24 0.25 0.42 0.49 0.67 0.80 0.89 1.01 1.23 1.37 1.32 1.19 1.01 0.94 0.97 0.99 1.07 1.12 1.25 1.39 1.33 1.37 1.45 1.63 1.83 1.93 2.11 2.13 2.10 2.07 2.12 2.14 2.11 2.12 2.05 2.14 2.22 2.26
0.29 0.31 0.36 0.40 0.38 0.33 0.28 0.25 0.32 0.46 0.73 0.93 0.95 1.00 1.18 1.21 1.08 0.91 0.81 0.70 0.67 0.85 0.94 0.93 0.98 1.09 1.08 1.09 1.26 1.44 1.53 1.65 1.90 2.04 2.08 2.08 2.14 2.27 2.30 2.25 2.21 2.23 2.18 2.23
0.43 0.39 0.40 0.52 0.48 0.41 0.34 0.34 0.38 0.54 0.79 1.04 0.91 0.84 0.97 1.01 0.96 0.88 0.88 0.71 0.67 0.79 0.97 1.05 1.00 0.97 1.09 1.20 1.34 1.44 1.56 1.69 1.90 2.04 2.15 2.21 2.22 2.35 2.29 2.30 2.35 2.28 2.19 2.18
0.50 0.62 0.75 0.58 0.45 0.44 0.46 0.50 0.46 0.63 0.72 0.87 0.84 0.86 0.99 0.99 0.98 0.84 0.83 0.80 0.81 0.85 0.84 0.89 0.92 0.96 1.11 1.38 1.65 1.70 1.81 1.98 2.11 2.25 2.20 2.19 2.20 2.25 2.36 2.45 2.50 2.49 2.42 2.32
0.67 0.81 0.73 0.64 0.47 0.53 0.60 0.79 0.81 0.93 0.94 0.94 0.91 0.98 1.05 0.90 0.84 0.85 0.77 0.79 0.88 0.94 0.91 0.96 1.00 1.04 1.21 1.40 1.70 1.88 1.92 2.03 2.19 2.30 2.34 2.35 2.35 2.35 2.47 2.59 2.57 2.51 2.44 2.46
0.82 0.97 0.96 0.81 0.61 0.61 0.80 1.39 1.18 1.14 1.17 1.07 0.98 1.16 1.26 1.14 1.05 0.99 0.91 0.88 0.91 0.97 1.08 1.24 1.30 1.31 1.42 1.52 1.66 1.83 1.90 2.03 2.21 2.44 2.49 2.50 2.65 2.76 2.74 2.71 2.59 2.61 2.61 2.58
0.95 1.04 1.14 0.95 0.82 0.85 1.44 1.82 1.44 1.31 1.31 1.30 1.37 1.37 1.28 1.12 1.14 1.10 1.00 0.98 0.95 1.03 1.19 1.43 1.57 1.60 1.68 1.80 1.90 1.89 1.94 2.08 2.27 2.46 2.56 2.63 2.81 2.90 2.90 2.85 2.85 2.81 2.73 2.76
1.15 1.38 1.59 1.07 1.02 1.47 1.79 1.49 1.53 1.54 1.50 1.42 1.37 1.30 1.22 1.14 1.18 1.14 1.07 1.09 1.09 1.17 1.37 1.60 1.81 1.77 1.83 1.89 1.91 1.93 1.92 2.06 2.20 2.35 2.36 2.43 2.73 2.83 2.95 2.99 2.94 2.85 2.82 2.69
1.53 1.68 1.51 1.24 1.32 1.48 1.61 1.78 1.71 1.63 1.70 1.49 1.47 1.36 1.25 1.21 1.19 1.16 1.11 1.12 1.18 1.25 1.47 1.73 1.93 1.98 2.03 1.94 2.00 2.03 2.06 2.17 2.29 2.38 2.42 2.51 2.63 2.68 2.78 2.85 2.81 2.68 2.71 2.65
1.77 1.79 1.66 1.56 1.44 1.25 1.37 1.51 1.50 1.51 1.55 1.53 1.47 1.37 1.28 1.19 1.11 1.09 1.11 1.06 1.14 1.27 1.40 1.56 1.77 1.97 2.09 2.11 2.13 2.12 2.18 2.23 2.32 2.43 2.41 2.48 2.60 2.71 2.82 2.89 2.97 2.88 2.73 2.59
2.02 1.89 1.76 1.76 1.62 1.47 1.52 1.59 1.51 1.44 1.42 1.44 1.41 1.33 1.20 1.19 1.16 1.12 1.10 1.06 1.14 1.28 1.38 1.48 1.57 1.70 1.78 1.91 2.01 2.06 2.16 2.22 2.24 2.26 2.34 2.45 2.51 2.63 2.61 2.68 2.71 2.69 2.60 2.56
2.40 2.06 1.91 1.90 1.70 1.51 1.55 1.53 1.62 1.72 1.68 1.44 1.34 1.42 1.36 1.24 1.16 1.15 1.17 1.16 1.19 1.27 1.33 1.40 1.50 1.69 1.76 1.84 1.98 2.12 2.21 2.23 2.19 2.13 2.19 2.23 2.30 2.31 2.34 2.24 2.24 2.17 2.16 2.15
2.10 1.87 1.76 1.72 1.63 1.49 1.48 1.42 1.43 1.58 1.63 1.51 1.45 1.43 1.49 1.44 1.36 1.28 1.24 1.19 1.22 1.28 1.34 1.43 1.51 1.68 1.72 1.73 1.85 2.00 2.10 2.14 2.14 2.11 2.13 2.13 2.22 2.21 2.25 2.18 2.06 1.93 1.85 1.85
1.88 1.88 1.86 1.73 1.57 1.54 1.53 1.43 1.33 1.36 1.46 1.48 1.51 1.53 1.64 1.62 1.55 1.49 1.43 1.34 1.28 1.29 1.28 1.34 1.50 1.53 1.54 1.57 1.62 1.73 1.80 1.89 2.03 2.12 2.16 2.18 2.28 2.37 2.45 2.47 2.37 2.12 1.93 1.85
1.89 1.78 1.72 1.57 1.52 1.57 1.59 1.48 1.38 1.39 1.54 1.69 1.62 1.57 1.63 1.57 1.54 1.49 1.44 1.35 1.29 1.26 1.29 1.32 1.39 1.43 1.49 1.61 1.71 1.75 1.73 1.73 1.73 1.80 1.93 2.03 2.06 2.12 2.25 2.37 2.41 2.31 2.12 2.03
2.00 1.85 1.65 1.48 1.55 1.70 1.77 1.70 1.58 1.49 1.48 1.66 1.69 1.59 1.57 1.50 1.39 1.39 1.42 1.42 1.44 1.43 1.44 1.44 1.48 1.46 1.55 1.69 1.84 1.86 1.79 1.81 1.73 1.66 1.66 1.72 1.80 1.89 2.02 2.19 2.29 2.27 2.19 2.07
2.08 2.00 1.80 1.61 1.55 1.61 1.67 1.69 1.64 1.59 1.53 1.60 1.64 1.64 1.62 1.55 1.42 1.36 1.35 1.39 1.48 1.50 1.52 1.59 1.62 1.63 1.74 1.79 1.83 1.85 1.77 1.76 1.78 1.73 1.74 1.78 1.82 1.91 1.94 1.99 2.05 2.01 1.91 1.83
1.87 1.78 1.69 1.59 1.52 1.51 1.54 1.53 1.52 1.51 1.52 1.60 1.64 1.61 1.60 1.64 1.59 1.50 1.41 1.42 1.45 1.44 1.44 1.49 1.56 1.59 1.75 1.89 1.93 1.90 1.78 1.70 1.64 1.65 1.74 1.80 1.86 1.95 2.00 1.99 1.94 1.85 1.76 1.65
1.74 1.68 1.61 1.51 1.50 1.48 1.48 1.46 1.48 1.45 1.43 1.46 1.58 1.65 1.61 1.61 1.68 1.62 1.54 1.57 1.64 1.66 1.52 1.43 1.52 1.48 1.55 1.81 1.99 2.01 1.86 1.77 1.73 1.73 1.77 1.79 1.80 1.85 1.90 1.88 1.86 1.78 1.68 1.60
1.75 1.72 1.71 1.67 1.58 1.57 1.56 1.48 1.47 1.46 1.43 1.48 1.60 1.65 1.71 1.65 1.69 1.74 1.73 1.67 1.66 1.75 1.73 1.61 1.48 1.42 1.42 1.65 1.98 1.93 1.89 1.82 1.73 1.71 1.72 1.74 1.79 1.89 1.88 1.81 1.73 1.71 1.73 1.72
1.92 1.93 1.89 1.83 1.74 1.65 1.54 1.43 1.47 1.52 1.48 1.55 1.67 1.69 1.72 1.66 1.60 1.72 1.87 1.69 1.55 1.66 1.71 1.67 1.47 1.38 1.39 1.60 1.91 1.91 1.91 1.89 1.77 1.68 1.69 1.74 1.77 1.85 1.87 1.85 1.77 1.67 1.68 1.71
2.26 2.23 2.05 1.86 1.80 1.67 1.54 1.47 1.49 1.51 1.52 1.60 1.61 1.65 1.81 1.81 1.73 1.72 1.70 1.67 1.58 1.64 1.61 1.54 1.45 1.39 1.36 1.45 1.59 1.71 1.71 1.67 1.60 1.53 1.48 1.53 1.63 1.78 1.80 1.83 1.84 1.76 1.75 1.79
2.33 2.21 2.07 1.89 1.82 1.66 1.47 1.45 1.46 1.52 1.61 1.68 1.73 1.82 2.05 2.05 1.92 1.96 1.76 1.45 1.39 1.51 1.45 1.37 1.43 1.39 1.34 1.30 1.45 1.56 1.52 1.51 1.48 1.42 1.38 1.42 1.52 1.64 1.76 1.75 1.76 1.77 1.71 1.66
2.16 2.06 1.97 1.81 1.82 1.79 1.69 1.59 1.55 1.61 1.67 1.67 1.71 1.86 2.11 2.24 2.00 1.67 1.55 1.48 1.41 1.39 1.33 1.36 1.39 1.37 1.35 1.28 1.42 1.54 1.52 1.50 1.49 1.47 1.41 1.46 1.51 1.58 1.64 1.62 1.60 1.60 1.58 1.57
2.15 2.01 1.89 1.89 2.01 2.01 1.88 1.77 1.76 1.83 1.85 1.81 1.77 1.82 1.98 2.23 2.19 1.73 1.41 1.29 1.35 1.34 1.26 1.36 1.41 1.40 1.26 1.18 1.27 1.44 1.55 1.58 1.59 1.54 1.49 1.58 1.63 1.66 1.67 1.65 1.66 1.64 1.59 1.52
2.04 1.99 1.96 1.98 1.97 2.01 2.01 2.04 2.12 2.17 2.23 2.31 2.23 2.06 2.12 2.22 2.08 1.80 1.48 1.27 1.27 1.35 1.27 1.35 1.43 1.44 1.31 1.27 1.31 1.41 1.50 1.62 1.63 1.60 1.57 1.59 1.61 1.69 1.72 1.70 1.67 1.65 1.54 1.46
1.95 1.86 1.87 1.88 1.89 1.94 2.05 2.26 2.43 2.47 2.52 2.67 2.63 2.31 2.21 2.25 2.19 1.98 1.69 1.52 1.50 1.51 1.49 1.46 1.39 1.35 1.38 1.46 1.47 1.41 1.45 1.57 1.60 1.62 1.68 1.63 1.60 1.60 1.61 1.57 1.53 1.48 1.36 1.26